When you browse on this site, cookies collect data to enhance your experience and personalize the content and advertising you see.
Visit our Privacy Policy to learn more. By continuing to use the site, you agree to this use of cookies and data.
  • In Belgium
  • List of Countries
  • For 7 days
  • Water Temperature
  • Satellite Maps
  • Weather Map
  • Weather Widgets
  • user-avatar
    Login

    Hourly Weather Ciudad Real

    Today, 11 December, Tuesday

    Time Temperature Precipitation Wind Pressure Humidity
    00:00 +9°C° 0 mm 0 mps 711 mmHg 42%
    01:00 +8°C° 0 mm 0 mps 711 mmHg 42%
    02:00 +8°C° 0 mm 0 mps 711 mmHg 42%
    03:00 +8°C° 0 mm 0 mps 710 mmHg 42%
    04:00 +8°C° 0 mm 0 mps 710 mmHg 42%
    05:00 +8°C° 0 mm 0 mps 710 mmHg 43%
    06:00 +7°C° 0 mm 0 mps 710 mmHg 43%
    07:00 +8°C° 0 mm 0 mps 710 mmHg 43%
    08:00 +10°C° 0 mm 0 mps 711 mmHg 43%
    09:00 +12°C° 0 mm 1 mps 711 mmHg 43%
    10:00 +14°C° 0 mm 1 mps 711 mmHg 41%
    11:00 +15°C° 0 mm 2 mps 711 mmHg 39%
    12:00 +17°C° 0 mm 2 mps 711 mmHg 37%
    13:00 +17°C° 0 mm 3 mps 711 mmHg 40%
    14:00 +17°C° 0 mm 3 mps 711 mmHg 42%
    15:00 +17°C° 0 mm 3 mps 710 mmHg 45%
    16:00 +14°C° 0 mm 3 mps 710 mmHg 51%
    17:00 +14°C° 0 mm 2 mps 710 mmHg 58%
    18:00 +12°C° 0 mm 2 mps 710 mmHg 64%
    19:00 +12°C° 0 mm 2 mps 710 mmHg 67%
    20:00 +10°C° 0 mm 2 mps 710 mmHg 70%
    21:00 +9°C° 0 mm 2 mps 711 mmHg 73%
    22:00 +9°C° 0 mm 2 mps 711 mmHg 76%
    23:00 +8°C° 0 mm 2 mps 711 mmHg 79%

    Tomorrow, 12 December, Wednesday

    Time Temperature Precipitation Wind Pressure Humidity
    00:00 +9°C° 0 mm 1 mps 710 mmHg 83%
    01:00 +9°C° 0 mm 1 mps 710 mmHg 86%
    02:00 +8°C° 0 mm 1 mps 710 mmHg 88%
    03:00 +8°C° 0 mm 1 mps 710 mmHg 91%
    04:00 +8°C° 0 mm 1 mps 710 mmHg 92%
    05:00 +8°C° 0 mm 1 mps 710 mmHg 93%
    06:00 +7°C° 0 mm 2 mps 710 mmHg 94%
    07:00 +8°C° 0 mm 2 mps 710 mmHg 93%
    08:00 +8°C° 0 mm 2 mps 710 mmHg 91%
    09:00 +9°C° 0 mm 2 mps 710 mmHg 89%
    10:00 +10°C° 0 mm 2 mps 710 mmHg 84%
    11:00 +11°C° 0 mm 3 mps 710 mmHg 79%
    12:00 +11°C° 0 mm 3 mps 710 mmHg 75%
    13:00 +12°C° 0 mm 3 mps 709 mmHg 73%
    14:00 +12°C° 0 mm 3 mps 709 mmHg 71%
    15:00 +13°C° 0 mm 4 mps 708 mmHg 69%
    16:00 +12°C° 0 mm 3 mps 708 mmHg 75%
    17:00 +11°C° 0 mm 3 mps 708 mmHg 80%
    18:00 +9°C° 0 mm 3 mps 708 mmHg 86%
    19:00 +9°C° 0 mm 3 mps 708 mmHg 87%
    20:00 +9°C° 0 mm 3 mps 708 mmHg 88%
    21:00 +8°C° 0 mm 4 mps 708 mmHg 89%
    22:00 +8°C° 0.1 mm 4 mps 708 mmHg 89%
    23:00 +8°C° 0.1 mm 4 mps 708 mmHg 90%

    Day after tomorrow, 13 December, Thursday

    Time Temperature Precipitation Wind Pressure Humidity
    00:00 +7°C° 0.1 mm 4 mps 708 mmHg 90%
    01:00 +8°C° 0.1 mm 4 mps 707 mmHg 89%
    02:00 +8°C° 0.1 mm 4 mps 706 mmHg 89%
    03:00 +8°C° 0.1 mm 5 mps 705 mmHg 88%
    04:00 +8°C° 0.2 mm 5 mps 704 mmHg 88%
    05:00 +8°C° 0.2 mm 6 mps 703 mmHg 88%
    06:00 +8°C° 0.2 mm 7 mps 702 mmHg 88%
    07:00 +7°C° 2.5 mm 8 mps 702 mmHg 84%
    08:00 +6°C° 2.5 mm 8 mps 702 mmHg 80%
    09:00 +6°C° 2.5 mm 9 mps 702 mmHg 77%
    10:00 +6°C° 0.1 mm 9 mps 702 mmHg 71%
    11:00 +6°C° 0.1 mm 10 mps 703 mmHg 66%
    12:00 +7°C° 0.1 mm 10 mps 703 mmHg 61%
    13:00 +7°C° 0.1 mm 10 mps 703 mmHg 60%
    14:00 +7°C° 0.1 mm 10 mps 703 mmHg 58%
    15:00 +7°C° 0.1 mm 10 mps 703 mmHg 56%
    16:00 +6°C° 0 mm 9 mps 703 mmHg 59%
    17:00 +5°C° 0 mm 8 mps 704 mmHg 61%
    18:00 +4°C° 0 mm 7 mps 704 mmHg 64%
    19:00 +4°C° 0 mm 7 mps 705 mmHg 66%
    20:00 +3°C° 0 mm 6 mps 706 mmHg 69%
    21:00 +3°C° 0 mm 5 mps 706 mmHg 72%
    22:00 +2°C° 0 mm 5 mps 707 mmHg 76%
    23:00 +3°C° 0 mm 4 mps 707 mmHg 80%

    14 December, Friday

    Time Temperature Precipitation Wind Pressure Humidity
    00:00 +1°C° 0 mm 4 mps 707 mmHg 83%
    01:00 +1°C° 0 mm 4 mps 707 mmHg 86%
    02:00 +2°C° 0 mm 3 mps 707 mmHg 88%
    03:00 +1°C° 0 mm 3 mps 707 mmHg 90%
    04:00 +1°C° 0 mm 3 mps 708 mmHg 91%
    05:00 +1°C° 0 mm 3 mps 708 mmHg 92%
    06:00 +1°C° 0 mm 3 mps 709 mmHg 93%
    07:00 +1°C° 0 mm 3 mps 709 mmHg 91%
    08:00 +3°C° 0 mm 2 mps 710 mmHg 88%
    09:00 +3°C° 0 mm 2 mps 711 mmHg 85%
    10:00 +5°C° 0 mm 2 mps 711 mmHg 76%
    11:00 +7°C° 0 mm 2 mps 712 mmHg 68%
    12:00 +9°C° 0 mm 2 mps 712 mmHg 59%
    13:00 +9°C° 0 mm 3 mps 712 mmHg 57%
    14:00 +9°C° 0 mm 3 mps 712 mmHg 55%
    15:00 +10°C° 0 mm 3 mps 712 mmHg 54%
    16:00 +9°C° 0 mm 3 mps 712 mmHg 61%
    17:00 +7°C° 0 mm 2 mps 712 mmHg 68%
    18:00 +6°C° 0 mm 2 mps 713 mmHg 75%
    19:00 +5°C° 0 mm 2 mps 713 mmHg 78%
    20:00 +6°C° 0 mm 1 mps 714 mmHg 80%
    21:00 +5°C° 0 mm 1 mps 714 mmHg 82%
    22:00 +5°C° 0 mm 1 mps 714 mmHg 82%
    23:00 +5°C° 0 mm 1 mps 714 mmHg 83%

    15 December, Saturday

    Time Temperature Precipitation Wind Pressure Humidity
    00:00 +5°C° 0 mm 1 mps 714 mmHg 83%
    01:00 +4°C° 0 mm 1 mps 714 mmHg 84%
    02:00 +4°C° 0 mm 1 mps 714 mmHg 84%
    03:00 +4°C° 0 mm 1 mps 713 mmHg 84%
    04:00 +4°C° 0 mm 1 mps 713 mmHg 84%
    05:00 +4°C° 0 mm 1 mps 714 mmHg 84%
    06:00 +3°C° 0 mm 0 mps 714 mmHg 84%
    07:00 +4°C° 0 mm 0 mps 714 mmHg 79%
    08:00 +6°C° 0 mm 1 mps 715 mmHg 74%
    09:00 +7°C° 0 mm 1 mps 715 mmHg 69%
    10:00 +9°C° 0 mm 1 mps 715 mmHg 63%
    11:00 +11°C° 0 mm 1 mps 715 mmHg 56%
    12:00 +12°C° 0 mm 1 mps 715 mmHg 50%
    13:00 +13°C° 0 mm 1 mps 714 mmHg 49%
    14:00 +13°C° 0 mm 1 mps 714 mmHg 48%
    15:00 +14°C° 0 mm 1 mps 714 mmHg 46%
    16:00 +11°C° 0 mm 0 mps 714 mmHg 53%
    17:00 +10°C° 0 mm 0 mps 714 mmHg 60%
    18:00 +8°C° 0 mm 0 mps 714 mmHg 67%
    19:00 +8°C° 0 mm 0 mps 714 mmHg 68%
    20:00 +7°C° 0 mm 0 mps 714 mmHg 69%
    21:00 +7°C° 0 mm 0 mps 714 mmHg 70%
    22:00 +7°C° 0 mm 0 mps 714 mmHg 70%
    23:00 +7°C° 0 mm 0 mps 714 mmHg 71%

    16 December, Sunday

    Time Temperature Precipitation Wind Pressure Humidity
    00:00 +7°C° 0 mm 0 mps 713 mmHg 71%
    01:00 +6°C° 0 mm 0 mps 713 mmHg 71%
    02:00 +6°C° 0 mm 0 mps 713 mmHg 71%
    03:00 +6°C° 0 mm 0 mps 713 mmHg 71%
    04:00 +6°C° 0 mm 0 mps 713 mmHg 71%
    05:00 +6°C° 0 mm 0 mps 713 mmHg 71%
    06:00 +6°C° 0 mm 0 mps 713 mmHg 71%
    07:00 +7°C° 0 mm 0 mps 713 mmHg 68%
    08:00 +9°C° 0 mm 1 mps 713 mmHg 64%
    09:00 +10°C° 0 mm 1 mps 714 mmHg 61%
    10:00 +12°C° 0 mm 1 mps 714 mmHg 55%
    11:00 +14°C° 0 mm 2 mps 714 mmHg 50%
    12:00 +16°C° 0 mm 2 mps 714 mmHg 44%
    13:00 +16°C° 0 mm 2 mps 713 mmHg 45%
    14:00 +16°C° 0 mm 2 mps 713 mmHg 46%
    15:00 +17°C° 0 mm 3 mps 713 mmHg 47%
    16:00 +15°C° 0 mm 2 mps 713 mmHg 55%
    17:00 +13°C° 0 mm 2 mps 713 mmHg 63%
    18:00 +11°C° 0 mm 1 mps 713 mmHg 71%
    19:00 +11°C° 0 mm 1 mps 713 mmHg 73%
    20:00 +10°C° 0 mm 1 mps 713 mmHg 75%
    21:00 +10°C° 0 mm 1 mps 714 mmHg 77%
    22:00 +9°C° 0 mm 1 mps 713 mmHg 77%
    23:00 +9°C° 0 mm 1 mps 713 mmHg 77%
    Show more